Location: Dammartin
(48.9032°N, 1.6195°E)
Time: 08:28:11
(UTC+00:00)

MOZHAYETS 4 - Visible Passes

Search period start: 03 December 2023 00:00
Search period end: 13 December 2023 00:00
Orbit: 656 x 672 km, 98.3° (Epoch: 03 December)

Date Brightness Start Highest point End Pass type
(mag) Time Alt. Az. Time Alt. Az. Time Alt. Az.
03 Dec 9.6 17:00:49 10° N 17:04:45 28° WNW 17:08:41 10° WSW visible
04 Dec 10.3 17:32:25 10° NNW 17:35:17 17° WNW 17:38:10 10° W visible
05 Dec 8.4 16:25:10 10° N 16:29:42 57° WNW 16:34:13 10° SSW visible
06 Dec 9.5 16:56:20 10° N 17:00:23 31° WNW 17:04:26 10° SW visible
07 Dec 10.2 17:27:50 10° NNW 17:30:56 18° WNW 17:34:01 10° W visible
08 Dec 10.7 18:00:39 10° NW 18:01:21 10° NW 18:02:02 10° WNW visible
09 Dec 9.3 16:51:49 10° N 16:55:58 34° WNW 17:00:07 10° SW visible
10 Dec 10.1 17:23:15 10° NNW 17:26:32 20° WNW 17:29:48 10° WSW visible
11 Dec 10.5 17:55:31 10° NW 17:56:57 11° NW 17:58:22 10° WNW visible
12 Dec 9.2 16:47:16 10° N 16:51:32 37° WNW 16:55:44 10° SW visible
